Printer-friendly version

IAU Minor Planet Center

Minor Planet Center

MPEC 2008-O43 : 2008 OY2

The following Minor Planet Electronic Circular may be linked-to from your own Web pages, but must not otherwise be redistributed electronically.


Read MPEC 2008-O42 Read MPEC 2008-O44


M.P.E.C. 2008-O43                                Issued 2008 July 29, 14:09 UT

     The Minor Planet Electronic Circulars contain information on unusual
         minor planets and routine data on comets.  They are published
   on behalf of Commission 20 of the International Astronomical Union by the
          Minor Planet Center, Smithsonian Astrophysical Observatory,
                          Cambridge, MA 02138, U.S.A.

             Prepared using the Tamkin Foundation Computer Network

                              MPC@CFA.HARVARD.EDU
          URL http://www.cfa.harvard.edu/iau/mpc.html  ISSN 1523-6714

                                   2008 OY2

Observations:
     K08O02Y* C2008 07 28.73553 20 41 46.13 -10 05 05.3          18.0 V EO043E12
     K08O02Y  C2008 07 28.73605 20 41 49.18 -10 05 02.7                 EO043E12
     K08O02Y  C2008 07 28.73660 20 41 52.22 -10 04 59.6                 EO043E12
     K08O02Y  C2008 07 28.73713 20 41 55.18 -10 04 58.3                 EO043E12
     K08O02Y  C2008 07 28.73765 20 41 58.47 -10 04 56.1                 EO043E12
     K08O02Y  C2008 07 28.73862 20 42 03.79 -10 04 50.7                 EO043E12
     K08O02Y  C2008 07 28.73916 20 42 06.92 -10 04 48.2                 EO043E12
     K08O02Y  C2008 07 28.73969 20 42 09.86 -10 04 45.8                 EO043E12
     K08O02Y  C2008 07 28.74022 20 42 12.91 -10 04 43.3                 EO043E12
     K08O02Y  C2008 07 28.74075 20 42 15.84 -10 04 40.5                 EO043E12
     K08O02Y tC2008 07 28.93847 21 01 08.11 -10 07 28.9          16.9 R EO043246
     K08O02Y tC2008 07 28.93905 21 01 10.94 -10 07 26.0                 EO043246
     K08O02Y tC2008 07 28.94067 21 01 18.81 -10 07 19.8                 EO043246
     K08O02Y tC2008 07 28.94104 21 01 20.49 -10 07 16.9          16.7 R EO043246
     K08O02Y tC2008 07 28.94148 21 01 22.74 -10 07 14.6                 EO043246
     K08O02Y  C2008 07 28.97963721 04 24.03 -10 04 01.5          18.0 V EO043B03
     K08O02Y  C2008 07 28.98201321 04 35.26 -10 03 50.3          19.0 V EO043B03
     K08O02Y  C2008 07 28.98549521 04 51.55 -10 03 32.0          18.2 V EO043B03
     K08O02Y  C2008 07 29.29083 21 27 28.76 -09 35 35.0          18.6 V EO043G96
     K08O02Y  C2008 07 29.29113 21 27 29.88 -09 35 33.8          18.7 V EO043G96
     K08O02Y  C2008 07 29.29145 21 27 31.03 -09 35 32.2          18.9 V EO043G96

Observer details:
246 Klet Observatory-KLENOT.  Observer M. Tichy.  1.06-m KLENOT Telescope
    + CCD.
B03 Alter Satzberg, Vienna.  Observer M. Pietschnig.  0.35-m f/5.8
    Schmidt-Cassegrain + CCD.
E12 Siding Spring Survey.  Observer R. H. McNaught.  Measurers E. C. Beshore,
    A. Boattini, G. J. Garradd, A. R. Gibbs, A. D. Grauer, R. E. Hill,
    R. A. Kowalski, S. M. Larson, R. H. McNaught.  0.5-m Uppsala Schmidt + CCD.
G96 Mt. Lemmon Survey.  Observer A. Boattini.  Measurers E. C. Beshore,
    A. Boattini, G. J. Garradd, A. R. Gibbs, A. D. Grauer, R. E. Hill,
    R. A. Kowalski, S. M. Larson, R. H. McNaught.  1.5-m reflector + CCD.

Orbital elements:
2008 OY2                                                 Earth MOID = 0.0026 AU
Epoch 2008 May 14.0 TT = JDT 2454600.5                  MPC
M 346.68912              (2000.0)            P               Q
n   0.23281072     Peri.  152.88852     +0.22329734     +0.97464359
a   2.6169820      Node   130.01061     -0.89769612     +0.21139115
e   0.6202050      Incl.    1.07938     -0.37984204     +0.07337340
P   4.23           H   27.2           G   0.15           U   6
Residuals in seconds of arc
080728 E12  0.4+  0.1+    080728 E12  0.4-  0.1-    080728 246  0.1-  0.0
080728 E12  1.5+  0.2+    080728 E12  0.0   0.2-    080728 B03  0.5+  0.3+
080728 E12  0.1-  0.7+    080728 E12  1.4-  0.1+    080728 B03  1.2+  0.4-
080728 E12  1.1-  0.5-    080728 246  0.1-  0.3+    080728 B03  0.4+  0.3+
080728 E12 (3.6+  0.8-)   080728 246  0.0   0.4+    080729 G96  0.1-  0.2+
080728 E12  0.3+  0.0     080728 246  0.1-  1.2-    080729 G96  0.2+  0.0
080728 E12  0.9+  0.0     080728 246  1.8-  0.1-    080729 G96  0.3-  0.1+

Ephemeris:
2008 OY2                 a,e,i = 2.62, 0.62, 1                   q = 0.9939
Date    TT    R. A. (2000) Decl.     Delta      r     Elong.  Phase     V
2008 07 23    13 05.36   +01 36.1    0.0263   1.009    74.2   104.4    23.2
2008 07 24    13 22.38   +00 48.9    0.0211   1.011    77.5   101.3    22.5
2008 07 25    13 50.25   -00 28.7    0.0161   1.014    83.6    95.5    21.7
2008 07 26    14 41.76   -02 50.3    0.0115   1.017    95.5    83.8    20.5
2008 07 27    16 26.54   -07 03.2    0.00818  1.020   120.7    58.9    18.9
2008 07 28    19 08.84   -10 27.7    0.00792  1.023   158.6    21.2    17.8
2008 07 29    21 06.00   -09 51.1    0.0110   1.026   168.2    11.7    18.2
2008 07 30    22 03.79   -08 36.4    0.0154   1.029   156.9    22.7    19.3
2008 07 31    22 34.26   -07 43.7    0.0205   1.033   150.7    28.7    20.1
2008 08 01    22 52.41   -07 08.7    0.0257   1.037   147.3    31.9    20.7
2008 08 02    23 04.26   -06 44.7    0.0310   1.041   145.4    33.6    21.1
2008 08 03    23 12.53   -06 27.5    0.0365   1.045   144.3    34.5    21.5
2008 08 04    23 18.57   -06 14.9    0.0419   1.049   143.8    34.8    21.9
2008 08 05    23 23.14   -06 05.5    0.0474   1.053   143.7    34.8    22.1
2008 08 06    23 26.68   -05 58.3    0.0529   1.057   143.7    34.6    22.4
2008 08 07    23 29.47   -05 52.8    0.0585   1.062   144.0    34.1    22.6
2008 08 08    23 31.71   -05 48.6    0.0641   1.067   144.4    33.6    22.8
2008 08 09    23 33.52   -05 45.4    0.0697   1.072   144.9    32.9    22.9
2008 08 10    23 34.99   -05 43.0    0.0753   1.077   145.5    32.2    23.1
2008 08 11    23 36.19   -05 41.3    0.0809   1.082   146.2    31.4    23.3
2008 08 12    23 37.16   -05 40.1    0.0866   1.087   146.9    30.6    23.4

Sonia Keys                   (C) Copyright 2008 MPC           M.P.E.C. 2008-O43

Read MPEC 2008-O42 Read MPEC 2008-O44


Our Web policy. Index to the CBAT/MPC/ICQ pages.


Valid HTML 4.01!